Location: La Tine
(46.4708°N, 7.0525°E)
Time: 01:23:45
(UTC+00:00)

Okean 2 Rocket - Pass Details

Date: 18 September 2020
Orbit: 616 x 642 km, 82.5° (Epoch: 31 October)

Event Time Altitude Azimuth Distance (km) Brightness Sun altitude
Rises 18:03:16 0° 149° (SSE) 2,934 6.1 -5.4°
Reaches altitude 10° 18:06:00 10° 133° (SE) 2,028 5.2 -5.8°
Maximum altitude 18:09:15 20° 86° (E) 1,481 4.4 -6.4°
Drops below altitude 10° 18:12:30 10° 40° (NE) 2,031 5.4 -7.0°
Sets 18:15:13 0° 23° (NNE) 2,940 6.4 -7.4°
